EW2136 Weather Reports


time (UTC)temp
C
wind
direction
speed
KPH
gust
KPH
rain 1hr
cm
rain 24hr
cm
rain mn
cm
humidity
%
barometer
mb
20260503225005 24 254 6.4 14.5 0.00 0.00 0.00 47 1010.3
20260503224505 24 256 8.0 17.7 0.00 0.00 0.00 47 1010.4
20260503224004 24 257 8.0 22.5 0.00 0.00 0.00 48 1010.5
20260503223505 24 256 6.4 22.5 0.00 0.00 0.00 49 1010.6
20260503223004 24 258 6.4 16.1 0.00 0.00 0.00 48 1010.6
20260503222505 23 255 6.4 16.1 0.00 0.00 0.00 50 1010.7
20260503222004 23 252 8.0 17.7 0.00 0.00 0.00 50 1010.8
20260503221505 23 254 9.7 19.3 0.00 0.00 0.00 48 1010.9
20260503221005 24 255 11.3 19.3 0.00 0.00 0.00 48 1011.0
20260503220505 24 256 9.7 19.3 0.00 0.00 0.00 47 1011.1
20260503215504 25 283 6.4 19.3 0.00 0.00 0.00 46 1011.2
20260503215005 24 24 6.4 20.9 0.00 0.00 0.00 46 1011.2
20260503214505 25 9 6.4 20.9 0.00 0.00 0.00 45 1011.3
20260503214004 24 311 8.0 17.7 0.00 0.00 0.00 46 1011.3
20260503213505 25 264 8.0 17.7 0.00 0.00 0.00 46 1011.3
20260503213005 25 266 6.4 17.7 0.00 0.00 0.00 44 1011.3
20260503212504 25 257 6.4 19.3 0.00 0.00 0.00 45 1011.3
20260503212005 25 254 6.4 19.3 0.00 0.00 0.00 45 1011.3
20260503211505 25 253 4.8 11.3 0.00 0.00 0.00 46 1011.3
20260503211005 25 253 6.4 16.1 0.00 0.00 0.00 46 1011.4
20260503210005 25 268 6.4 16.1 0.00 0.00 0.00 45 1011.5
20260503204504 24 253 8.0 14.5 0.00 0.00 0.00 46 1011.6
20260503204004 24 254 8.0 17.7 0.00 0.00 0.00 46 1011.7
20260503203505 24 258 6.4 17.7 0.00 0.00 0.00 46 1011.8
20260503203005 24 258 6.4 16.1 0.00 0.00 0.00 48 1011.9
20260503202505 25 256 6.4 16.1 0.00 0.00 0.00 46 1011.8
20260503201505 25 255 4.8 14.5 0.00 0.00 0.00 46 1011.9
20260503201004 25 256 4.8 12.9 0.00 0.00 0.00 46 1012.1
20260503200505 24 254 4.8 12.9 0.00 0.00 0.00 48 1012.1
20260503200004 24 259 6.4 12.9 0.00 0.00 0.00 49 1012.2
20260503195505 24 258 6.4 11.3 0.00 0.00 0.00 49 1012.2
20260503195004 24 256 6.4 11.3 0.00 0.00 0.00 48 1012.3
20260503194504 24 257 6.4 11.3 0.00 0.00 0.00 48 1012.4
20260503193504 23 259 4.8 12.9 0.00 0.00 0.00 48 1012.6
20260503193004 23 258 4.8 12.9 0.00 0.00 0.00 50 1012.7
20260503192005 23 262 6.4 12.9 0.00 0.00 0.00 50 1012.8
20260503191004 22 261 6.4 16.1 0.00 0.00 0.00 52 1012.8
20260503190005 22 256 4.8 16.1 0.00 0.00 0.00 54 1013.0
20260503185505 22 255 6.4 11.3 0.00 0.00 0.00 55 1013.1
20260503185004 21 255 8.0 16.1 0.00 0.00 0.00 54 1013.2
20260503184505 21 253 8.0 16.1 0.00 0.00 0.00 54 1013.2
20260503183504 21 249 4.8 14.5 0.00 0.00 0.00 56 1013.3
20260503182505 21 257 4.8 12.9 0.00 0.00 0.00 56 1013.5
20260503182005 20 270 4.8 12.9 0.00 0.00 0.00 58 1013.4
20260503181004 20 256 6.4 19.3 0.00 0.00 0.00 59 1013.4
20260503180505 20 263 6.4 19.3 0.00 0.00 0.00 59 1013.5
20260503180005 20 257 4.8 12.9 0.00 0.00 0.00 59 1013.5
20260503175504 20 251 4.8 12.9 0.00 0.00 0.00 60 1013.6
20260503175005 20 254 6.4 11.3 0.00 0.00 0.00 60 1013.6
20260503174505 20 282 4.8 11.3 0.00 0.00 0.00 61 1013.6
20260503174005 20 302 3.2 12.9 0.00 0.00 0.00 59 1013.7
20260503173505 20 313 3.2 12.9 0.00 0.00 0.00 58 1013.7
20260503173004 20 285 3.2 12.9 0.00 0.00 0.00 57 1013.8
20260503172504 20 286 4.8 12.9 0.00 0.00 0.00 55 1013.8
20260503172004 20 8 4.8 16.1 0.00 0.00 0.00 56 1013.8
20260503171504 20 28 4.8 16.1 0.00 0.00 0.00 54 1013.8
20260503171004 20 24 4.8 11.3 0.00 0.00 0.00 53 1013.9
20260503170505 20 38 4.8 12.9 0.00 0.00 0.00 56 1013.9
20260503151005 17 275 1.6 8.0 0.00 0.00 0.00 70 1014.3
20260503150504 16 283 1.6 8.0 0.00 0.00 0.00 70 1014.3
20260503131004 10 222 0.0 1.6 0.00 0.00 0.00 87 1013.8
20260503130504 10 40 0.0 3.2 0.00 0.00 0.00 87 1013.8
20260503110504 11 53 0.0 3.2 0.00 0.00 0.00 82 1014.0
20260503090506 11 81 0.0 4.8 0.00 0.00 0.00 79 1013.9
20260503081005 12 75 0.0 3.2 0.00 0.00 0.00 79 1013.9
20260503080505 12 62 0.0 3.2 0.00 0.00 0.00 78 1013.9
20260503072505 12 52 0.0 3.2 0.00 0.00 0.00 77 1013.7
20260503072006 12 43 0.0 4.8 0.00 0.00 0.00 77 1013.7
20260503071506 12 41 0.0 4.8 0.00 0.00 0.00 77 1013.6
20260503071006 12 52 0.0 3.2 0.00 0.00 0.00 77 1013.6
20260503070506 12 51 0.0 3.2 0.00 0.00 0.00 77 1013.6
20260503055005 13 47 0.0 1.6 0.00 0.00 0.00 72 1013.7
20260503054506 14 32 0.0 1.6 0.00 0.00 0.00 72 1013.6
20260503053005 14 357 0.0 1.6 0.00 0.00 0.00 71 1013.7
20260503052505 14 37 0.0 3.2 0.00 0.00 0.00 70 1013.6
20260503052006 15 53 0.0 3.2 0.00 0.00 0.00 70 1013.6
20260503051005 15 35 0.0 3.2 0.00 0.00 0.00 70 1013.7
20260503050505 15 31 0.0 3.2 0.00 0.00 0.00 69 1013.5
20260503050006 15 8 0.0 1.6 0.00 0.00 0.00 68 1013.6
20260503045005 16 309 0.0 1.6 0.00 0.00 0.00 67 1013.5
20260503044506 16 21 0.0 3.2 0.00 0.00 0.00 67 1013.4
20260503044005 16 36 0.0 3.2 0.00 0.00 0.00 66 1013.3
20260503043505 16 58 0.0 3.2 0.00 0.00 0.00 66 1013.3
20260503043005 16 80 1.6 3.2 0.00 0.00 0.00 64 1013.3
20260503042005 17 61 0.0 6.4 0.00 0.00 0.00 63 1013.1
20260503041505 17 32 1.6 6.4 0.00 0.00 0.00 62 1013.0
20260503040505 17 16 1.6 11.3 0.00 0.00 0.00 60 1012.9
20260503035505 17 265 1.6 3.2 0.00 0.00 0.00 60 1012.7
20260503035006 17 312 0.0 6.4 0.00 0.00 0.00 59 1012.7
20260503034506 18 314 0.0 6.4 0.00 0.00 0.00 58 1012.7
20260503034005 18 238 0.0 4.8 0.00 0.00 0.00 60 1012.6
20260503033505 18 229 0.0 4.8 0.00 0.00 0.00 58 1012.5
20260503033005 18 236 1.6 3.2 0.00 0.00 0.00 58 1012.5
20260503032505 18 238 1.6 4.8 0.00 0.00 0.00 57 1012.4
20260503032006 18 237 1.6 4.8 0.00 0.00 0.00 57 1012.5
20260503031506 18 236 1.6 4.8 0.00 0.00 0.00 58 1012.5
20260503031005 19 236 1.6 4.8 0.00 0.00 0.00 56 1012.4
20260503030505 19 245 1.6 4.8 0.00 0.00 0.00 56 1012.3
20260503030005 20 246 1.6 4.8 0.00 0.00 0.00 55 1012.2
20260503025505 20 242 1.6 6.4 0.00 0.00 0.00 55 1012.2
20260503025006 20 238 3.2 9.7 0.00 0.00 0.00 54 1012.2
20260503024505 20 240 3.2 9.7 0.00 0.00 0.00 53 1012.2
20260503023505 20 252 3.2 11.3 0.00 0.00 0.00 52 1012.1
20260503022505 21 22 3.2 8.0 0.00 0.00 0.00 49 1012.1
20260503022005 21 348 3.2 8.0 0.00 0.00 0.00 50 1012.1
20260503021005 21 32 4.8 19.3 0.00 0.00 0.00 48 1012.1
20260503020505 21 21 4.8 19.3 0.00 0.00 0.00 48 1012.1
20260503020005 21 353 4.8 16.1 0.00 0.00 0.00 47 1012.2
20260503015505 21 354 6.4 24.1 0.00 0.00 0.00 49 1012.2
20260503015005 21 339 6.4 24.1 0.00 0.00 0.00 49 1012.2
20260503014505 21 272 4.8 24.1 0.00 0.00 0.00 51 1012.2
20260503014005 21 296 3.2 17.7 0.00 0.00 0.00 51 1012.2
20260503013505 21 358 4.8 19.3 0.00 0.00 0.00 52 1012.2
20260503013005 21 21 6.4 19.3 0.00 0.00 0.00 50 1012.3
20260503012505 21 21 4.8 17.7 0.00 0.00 0.00 52 1012.4
20260503012005 21 15 4.8 17.7 0.00 0.00 0.00 53 1012.3
20260503011506 21 16 3.2 9.7 0.00 0.00 0.00 54 1012.3
20260503011005 21 268 3.2 11.3 0.00 0.00 0.00 56 1012.4
20260503010505 21 253 3.2 11.3 0.00 0.00 0.00 57 1012.3
20260503005505 21 252 4.8 12.9 0.00 0.00 0.00 57 1012.5
20260503005005 21 250 4.8 12.9 0.00 0.00 0.00 59 1012.5
20260503004505 21 244 4.8 16.1 0.00 0.00 0.00 57 1012.5
20260503004005 21 242 4.8 16.1 0.00 0.00 0.00 56 1012.6
20260503003505 21 248 6.4 17.7 0.00 0.00 0.00 56 1012.5
20260503003005 21 252 6.4 17.7 0.00 0.00 0.00 56 1012.6
20260503002505 22 254 8.0 17.7 0.00 0.00 0.00 55 1012.5
20260503002005 22 257 8.0 17.7 0.00 0.00 0.00 55 1012.5
20260503001505 22 254 4.8 14.5 0.00 0.00 0.00 56 1012.5
20260503001005 22 247 4.8 14.5 0.00 0.00 0.00 56 1012.6
20260502235504 22 303 3.2 12.9 0.00 0.00 0.00 55 1012.7
20260502235005 22 268 4.8 19.3 0.00 0.00 0.00 56 1012.8
20260502234505 22 260 6.4 19.3 0.00 0.00 0.00 55 1012.8
20260502234005 22 258 4.8 12.9 0.00 0.00 0.00 56 1013.0
20260502233005 22 280 4.8 19.3 0.00 0.00 0.00 55 1013.1
20260502232505 22 270 6.4 14.5 0.00 0.00 0.00 55 1013.2
20260502232005 22 257 6.4 14.5 0.00 0.00 0.00 55 1013.2
20260502231505 22 257 6.4 22.5 0.00 0.00 0.00 55 1013.3
20260502230505 22 259 6.4 16.1 0.00 0.00 0.00 56 1013.5
20260502225505 22 273 6.4 16.1 0.00 0.00 0.00 56 1013.7